Regional Weather Roundup
Issued by NWS Midland/Odessa, TX

Skip options and go directly to product.
Home | Oldest Version | Next Version | Current Version | All | Text Only | Save Text | Print | Product List | Glossary On

Skip product version selection by date and time.   
877
ASUS44 KMAF 241410
RWRMAF
MIDLAND AREA WEATHER ROUNDUP
NATIONAL WEATHER SERVICE MIDLAND TX
900 AM CDT TUE MAY 24 2016

...IN SOUTHWEST TEXAS AND SOUTHEAST NEW MEXICO...

CITY           SKY/WX    TMP DP  RH WIND       PRES   REMARKS
ALPINE         PTSUNNY   75  38  26 SW7       30.07S
ANDREWS        PTSUNNY   73  67  82 S17       29.91R
ARTESIA        SUNNY     73  25  16 SW8       29.93S
BIG SPRING     MOSUNNY   74  68  80 S18       29.91S
CARLSBAD       SUNNY     73  53  49 S6        29.92R
DRYDEN         NOT AVBL
FORT STOCKTON  MOSUNNY   76  64  66 S7        29.92R
GUAD PASS      NOT AVBL
HOBBS          SUNNY     70  70 100 S12       29.94R
MARFA          CLOUDY    63  56  78 CALM      30.08R
MIDLAND AIRPK  PTSUNNY   76  66  70 S17G26    29.90R
MIDLAND INTL   CLOUDY    76  67  73 S17       29.90R
ODESSA         CLOUDY    76  66  71 S20       29.91R
PECOS          SUNNY     71  34  25 W5        29.91R
PRESIDIO       FAIR      75  60  58 CALM      29.95R
SEMINOLE       PTSUNNY   72  66  82 S12       29.93R
SNYDER           N/A     75  70  85 S15       29.91R
WINK           SUNNY     73  64  73 MISG      29.89R
$$
...OTHER STATIONS IN TEXAS...

CITY           SKY/WX    TMP DP  RH WIND       PRES   REMARKS
ABILENE        CLOUDY    74  70  87 SE15      29.93R
AMARILLO       MOSUNNY   69  63  81 S26G32    29.90S
AUSTIN         PTSUNNY   78  73  84 S10       29.94R
BROWNSVILLE    MOSUNNY   82  79  89 SE17G24   29.87R
CORPUS CHRISTI PTSUNNY   82  77  84 SE15      29.89R
DALLAS FTW     CLOUDY    75  71  87 SE7       29.96R FOG
DEL RIO        CLOUDY    75  73  93 SE12      29.86R
EL PASO        MOSUNNY   72  23  16 S6        29.99R
HOUSTON INT    PTSUNNY   78  73  84 SE14      29.95R
LUBBOCK        CLOUDY    72  67  84 S14       29.91R HAZE
SAN ANGELO     PTSUNNY   77  68  73 S10       29.91R
SAN ANTONIO    CLOUDY    77  73  87 SE10      29.95R
WACO           CLOUDY    77  71  82 S10       29.96R
WICHITA FALLS  NOT AVBL
$$
...OTHER LOCATIONS IN NEW MEXICO...

CITY           SKY/WX    TMP DP  RH WIND       PRES   REMARKS
ALAMAGORDO     SUNNY     72  27  18 SE8       30.01R
ALBUQUERQUE    SUNNY     62  23  22 CALM      30.02R
CANNON AFB     SUNNY     67  58  72 SW12      29.94R
CLOVIS         SUNNY     64  57  77 SW15      29.94R
HOLLOMAN AFB   SUNNY     71  23  16 SE6       29.99R
ROSWELL        SUNNY     67  29  24 SE5       29.93R
RUIDOSO          N/A     63  21  20 SW13      30.12R
SANTA FE       SUNNY     60  22  23 N7        30.05R
TRUTH OR CONSE SUNNY     66  24  20 S7        30.00R
TUCUMCARI      SUNNY     67  30  25 W7        29.90R
$$

USA.gov is the U.S. government's official web portal to all federal, state and local government web resources and services.